Terminal Aerodrome Forecast
Issued by NWS Mt. Holly, NJ

Home | Current Version | Previous Version | Text Only | Print | Product List | Glossary On
Versions: 1 2 3 4 5 6 7 8 9 10 11 12 13 14 15 16 17
000
FTUS41 KPHI 261100
TAFACY
TAF
KACY 261135Z 2612/2712 VRB03KT P6SM SCT150
     FM261500 19010G18KT P6SM SCT050
     FM262200 19008KT P6SM SCT050 BKN250
     FM271000 20005KT 4SM BR OVC250=

USA.gov is the U.S. government's official web portal to all federal, state and local government web resources and services.